Location: Unspecified
(0.0000°N, 0.0000°E)
Time: 11:31:22
(UTC+00:00)

Tiros 1 despin weight - Visible Passes

Search period start: 07 October 2022 00:00
Search period end: 17 October 2022 00:00
Orbit: 591 x 638 km, 48.2° (Epoch: 07 October)

Date Brightness Start Highest point End Pass type
(mag) Time Alt. Az. Time Alt. Az. Time Alt. Az.
15 Oct ? 18:27:47 10° NE 18:28:38 10° NE 18:28:48 10° NE visible
15 Oct ? 20:05:27 10° NW 20:05:52 12° NW 20:05:52 12° NW visible
16 Oct ? 18:40:03 10° N 18:43:54 27° NE 18:45:03 24° ENE visible
16 Oct ? 20:21:34 10° WNW 20:22:09 13° W 20:22:09 13° W visible
